Regional Weather Roundup
Issued by NWS

Home | Current Version | Previous Version | Text Only | Print | Product List | Glossary On
Versions: 1 2 3 4 5 6 7 8 9 10 11 12 13 14 15 16 17 18 19 20 21 22 23 24 25 26 27 28 29 30 31 32 33 34 35 36 37 38 39 40 41 42 43 44 45 46 47 48 49 50
000
ASUS44 KEWX 040211
RWRTX
SOUTH TEXAS REGIONAL WEATHER ROUNDUP
NATIONAL WEATHER SERVICE AUSTIN/SAN ANTONIO TX
900 PM CDT SUN MAY 03 2015

NOTE: "FAIR" INDICATED FEW OR NO CLOUDS BELOW 12,000 FEET WITH NO
SIGNIFICANT WEATHER AND/OR OBSTRUCTIONS TO VISIBILITY.

* - THESE STATIONS ARE NOT NWS OR FAA STATIONS...AND ARE NOT SUBJECT
    TO NWS AND FAA QUALITY CONTROL.

TXZ171-172-183>190-040300-
TEXAS HILL COUNTRY AND EDWARDS PLATEAU

CITY           SKY/WX    TMP DP  RH WIND       PRES   REMARKS
JUNCTION       CLEAR     75  55  49 SE8       29.94R
*LLANO         CLEAR     70  54  56 CALM      29.98S
BURNET         CLEAR     74  57  55 SE8G18    29.98R
*HORSESHOE BAY PTCLDY    74  61  63 SE7       29.96R
*KERRVILLE     CLEAR     72  59  64 SE6       29.97R
*FREDERICKSBRG CLEAR     70  54  57 SE3       29.97R
*ROCKSPRINGS   CLEAR     72  57  60 SE8       29.97S
*BOERNE STAGE  MOCLDY    72  59  64 SE8       29.98R
*CASTROVILLE   CLEAR     75  60  59 SE9       29.96R
HONDO          PTCLDY    76  63  64 SE12      29.95R
*UVALDE        MOCLDY    77  62  59 CALM      29.92R
DEL RIO        CLEAR     79  59  50 SE8       29.86R
LAUGHLIN AFB   CLEAR     78  61  56 SE10      29.88R
CARRIZO SPRGS  PTCLDY    79  64  61 SE12G21   29.88R
$$

TXZ173-191>194-202-209-217>225-228-040300-
CENTRAL AND SOUTH CENTRAL TEXAS

CITY           SKY/WX    TMP DP  RH WIND       PRES   REMARKS
GEORGETOWN     PTCLDY    75  61  60 SE9       29.96R
AUSTIN/BERGSTM PTCLDY    74  63  68 SE10      29.97R
AUSTIN/MABRY   PTCLDY    76  62  62 S9G20     29.97R
*AUSTIN/EXEC   MOCLDY    73  63  68 S7        29.98R
*LAGO VISTA    CLEAR     75  60  58 SE9       29.98S
SAN MARCOS     CLEAR     72  61  68 SE9       29.98R
NEW BRAUNFELS  CLEAR     74  63  68 SE13      29.95R
RANDOLPH AFB   CLEAR     72  62  68 SE10      29.96R
PT SAN ANTONIO PTCLDY    76  63  65 SE14      29.94R
SAN ANTONIO    PTCLDY    76  63  64 SE16      29.96R
STINSON FIELD  PTCLDY    75  63  66 SE14      29.94R
*PLEASANTON    HVY RAIN  75  61  61 SE10      29.95R
*LA GRANGE     PTCLDY    74  64  72 S8        29.98R
*GIDDINGS      PTCLDY    73  62  66 S6        30.02R
*GONZALES      PTCLDY   N/A N/A N/A SE10      29.97R
$$

TXZ163>164-176>182-195>201-210>213-226-227-235-040300-
SOUTHEAST TEXAS

CITY           SKY/WX    TMP DP  RH WIND       PRES   REMARKS
COLLEGE STN    PTCLDY    73  59  61 SE7       29.99R
*BRYAN         PTCLDY    69  61  75 SE6       30.00R
*CALDWELL      PTCLDY    72  61  68 SE8       30.02R
*CROCKETT      NOT AVBL
*BRENHAM       PTCLDY    75  63  66 SE8       30.00R
HUNTSVILLE     CLEAR     74  61  63 VRB6      30.01R
CONROE         CLEAR     71  59  65 SE6       30.03R
HOUSTON BUSH   PTCLDY    72  59  63 S6        30.02R
HOUSTON HOBBY  PTCLDY    73  60  63 SE6       30.02R
*HOUSTON SW AP PTCLDY    76  70  81 SE5       30.03R
PEARLAND       PTCLDY    74  61  63 SE6       30.04R
HOUSTON HOOKS  PTCLDY    73  60  63 SE5       30.02R
ELLINGTON FLD  PTCLDY    73  61  64 SE6       30.03S
SUGAR LAND     PTCLDY    73  62  68 SE12      30.02R
*HOUSTON EXEC  PTCLDY    72  63  73 S12G17    30.03R
*CLEVELAND MUN PTCLDY    68  63  83 CALM      30.04R
*WHARTON       CLEAR     71  63  76 SE9       30.02R
*COLUMBUS      MOCLDY    73  64  74 SE10G16   30.00R
$$

TXZ214>216-236>238-040300-
THE UPPER TEXAS COAST

CITY           SKY/WX    TMP DP  RH WIND       PRES   REMARKS
*ORANGE        CLEAR     70  56  61 SE3       30.07R
PORT ARTHUR    CLEAR     67  58  72 SE7       30.04R
GALVESTON      PTCLDY    74  63  68 SE14      30.05R
ANGLETON       PTCLDY    71  64  78 SE9       30.03R
*BAY CITY      CLOUDY    73  67  82 SE6       30.02R
PALACIOS       CLEAR     74  67  78 SE12      30.00S
$$

TXZ229>234-239>247-040300-
TEXAS COASTAL BEND AND RIO GRANDE PLAINS

CITY           SKY/WX    TMP DP  RH WIND       PRES   REMARKS
VICTORIA       CLEAR     72  65  78 SE12      29.99R
*BEEVILLE      CLEAR     72  64  77 SE9       29.97R
ROCKPORT       CLEAR     76  66  71 SE17      29.97S
*PORT ARANSAS  CLEAR     75  68  80 SE14      29.96S
*PORT LAVACA   CLEAR     72  66  81 SE9       30.00R
*INGLESIDE     CLEAR     76  68  78 SE16G23   29.96S
CORPUS CHRISTI PTCLDY    75  68  78 SE17      29.96R
CORPUS NAS     CLEAR     75  69  81 SE23      29.96S
*ROBSTOWN      CLEAR     75  69  80 SE13G18   29.96R
ALICE          CLEAR     75  66  73 SE15      29.94R
KINGSVILLE NAS PTCLDY    73  71  93 SE10      29.95R
COTULLA        PTCLDY    79  65  62 SE17G23   29.91R
*FAITH RANCH   CLEAR     81  64  57 SE10G17   29.88R
LAREDO         PTCLDY    80  67  64 SE16      29.91R
$$

TXZ248>255-040300-
DEEP SOUTH TEXAS

CITY           SKY/WX    TMP DP  RH WIND       PRES   REMARKS
BROWNSVILLE    CLEAR     75  70  84 SE9       29.94R
PORT ISABEL    CLEAR     76  69  79 SE15      29.94R
*SOUTH PADRE     N/A    N/A N/A N/A MISG        N/A
HARLINGEN      CLEAR     76  69  79 SE13      29.93R
*HEBBRONVILLE    N/A     76  66  71 E16       29.93R
MCALLEN        CLEAR     78  68  71 SE13      29.93R
*WESLACO       CLEAR     76  67  73 SE10G16   29.93R
FALFURRIAS     CLEAR     75  67  76 SE9       29.93R
EDINBURG       PTCLDY    78  67  69 SE9       29.93R
*ZAPATA        CLEAR     79  66  64 SE8G20    29.89R
$$

TXZ213>215-236>238-242>244-246-247-251-254-255-040300-
CMAN STATIONS

STATION/POSITION TIME  TEMP    WIND        PRES    WAVE
                       AIR SEA DIR/SP/G            HT/PER
                 (UTC) (F)     (DEG/KT/KT) (MB)    (FT/S)
$$

GMZ080-GMZ150>470-040300-
OFFSHORE BUOY REPORTS

STATION/POSITION TIME  TEMP    WIND        PRES    WAVE
                       AIR SEA DIR/SP/G            HT/PER
                 (UTC) (F)     (DEG/KT/KT) (MB)    (FT/S)
$$



USA.gov is the U.S. government's official web portal to all federal, state and local government web resources and services.